This is the latest recevied weather packets stored in our database for station/object KN6CRX-10. If no packets are shown the sender has not sent any weather packets the latest 10 day(s).
| Time | Temp. | Humidity | Pressure | Rain* | Wind** | Luminosity | Snow |
|---|---|---|---|---|---|---|---|
| 1788231079 | 16.11° C | 76% | 1020.1 hPa | 0 mm | - | 0 W/m² | - |
| 1788230779 | 16.11° C | 74% | 1019.9 hPa | 0 mm | - | 0 W/m² | - |
| 1788230478 | 16.67° C | 71% | 1019.8 hPa | 0 mm | - | 0 W/m² | - |
| 1788230177 | 16.67° C | 69% | 1019.5 hPa | 0 mm | - | 0 W/m² | - |
| 1788229871 | 16.67° C | 68% | 1019.3 hPa | 0 mm | - | 0 W/m² | - |
| 1788229567 | 17.22° C | 68% | 1019.4 hPa | 0 mm | - | 0 W/m² | - |
| 1788229262 | 17.78° C | 66% | 1019.3 hPa | 0 mm | - | 0 W/m² | - |
| 1788228958 | 18.33° C | 63% | 1019.4 hPa | 0 mm | - | 0 W/m² | - |
| 1788228653 | 18.89° C | 61% | 1019.2 hPa | 0 mm | - | 0 W/m² | - |
| 1788228348 | 19.44° C | 59% | 1019 hPa | 0 mm | - | 0 W/m² | - |
| 1788228043 | 21.11° C | 53% | 1019 hPa | 0 mm | - | 0 W/m² | - |
| 1788227739 | 22.78° C | 45% | 1019 hPa | 0 mm | - | 1 W/m² | - |
| 1788227439 | 23.33° C | 41% | 1018.4 hPa | 0 mm | - | 1 W/m² | - |
| 1788227134 | 23.89° C | 37% | 1017.8 hPa | 0 mm | - | 2 W/m² | - |
| 1788226844 | 23.89° C | 36% | 1017.4 hPa | 0 mm | - | 4 W/m² | - |
| 1788226526 | 23.89° C | 36% | 1017.5 hPa | 0 mm | - | 7 W/m² | - |
| 1788226221 | 23.89° C | 37% | 1017.4 hPa | 0 mm | - | 7 W/m² | - |
| 1788225921 | 23.89° C | 39% | 1017.4 hPa | 0 mm | - | 8 W/m² | - |
| 1788225616 | 23.89° C | 39% | 1017.4 hPa | 0 mm | - | 9 W/m² | - |
| 1788225313 | 23.89° C | 39% | 1017.5 hPa | 0 mm | - | 9 W/m² | - |
| 1788225010 | 23.89° C | 40% | 1017.2 hPa | 0 mm | - | 11 W/m² | - |
| 1788224706 | 24.44° C | 39% | 1017.5 hPa | 0 mm | - | 15 W/m² | - |
| 1788224405 | 24.44° C | 37% | 1017.4 hPa | 0 mm | - | 21 W/m² | - |
| 1788224100 | 25° C | 38% | 1017.4 hPa | 0 mm | - | 26 W/m² | - |
| 1788223794 | 25° C | 37% | 1017.5 hPa | 0 mm | - | 33 W/m² | - |
* Rain latest hour (hover to see other rain measurements)
** Current wind speed in m/s (hover to see current wind gust speed)